Weather Roundup
Issued by NWS Corpus Christi, TX

Home | Current Version | Previous Version | Text Only | Print | Product List | Glossary On
Versions: 1 2 3 4 5 6 7 8 9 10 11 12 13 14 15 16 17 18 19 20 21 22 23 24 25 26 27 28 29 30 31 32 33 34 35 36 37 38 39 40 41 42 43 44 45 46 47 48 49 50
000
ASUS44 KCRP 180510
HRRCRP

SOUTH TEXAS REGIONAL WEATHER ROUNDUP
NATIONAL WEATHER SERVICE CORPUS CHRISTI TX
1200 AM CDT FRI APR 18 2014


TXZ229>244-180600-
...CORPUS CHRISTI AREA OBSERVATIONS...

CITY           SKY/WX    TMP DP  RH WIND       PRES   REMARKS
CORPUS CHRISTI DRIZZLE   67  62  84 E15       30.12R
NAS CORPUS CHR CLOUDY    67  64  90 NE15      30.11R
ROCKPORT       CLOUDY    66  63  90 E12       30.12R
KINGSVILLE NAS CLOUDY    66  65  96 NE8       30.12R
ALICE          LGT RAIN  65  63  93 NE8       30.12R FOG
FALFURRIAS     CLOUDY    67  65  92 NE8       30.11R
$$

...VICTORIA AREA OBSERVATIONS...

CITY           SKY/WX    TMP DP  RH WIND       PRES   REMARKS
VICTORIA       CLOUDY    63  58  83 N5        30.15R
BEEVILLE       CLOUDY    64  64 100 E8        30.14R
PLEASANTON     HVY RAIN  64  59  83 E8        30.16R
SAN ANTONIO    LGT RAIN  63  61  93 E5        30.17R FOG
$$

...LAREDO AREA OBSERVATIONS...

CITY           SKY/WX    TMP DP  RH WIND       PRES   REMARKS
LAREDO         CLOUDY    70  62  75 E16       30.14R
COTULLA        CLOUDY    66  61  84 E12       30.14R
DEL RIO        PTCLDY    67  58  72 E16       30.12R
MCALLEN        LGT RAIN  69  66  90 E10       30.08R
HEBBRONVILLE   CLOUDY    64  63  94 E9        30.13R FOG
$$

...OTHER TEXAS OBSERVATIONS...

CITY           SKY/WX    TMP DP  RH WIND       PRES   REMARKS
BROWNSVILLE    CLOUDY    70  67  90 NE6       30.07R
HOUSTON        MOCLDY    63  54  72 NE6       30.15S
COL. STATION   CLOUDY    61  60  97 SW3       30.16F FOG
AUSTIN         CLOUDY    61  60  97 CALM      30.16S FOG
WACO           LGT RAIN  60  57  89 N9        30.18R
FORT WORTH     LGT RAIN  58  54  86 E5        30.21R FOG
WICHITA FALLS  CLOUDY    55  52  89 NE5       30.23R
LUBBOCK        CLEAR     43  37  79 E7        30.23S
EL PASO        CLEAR     66  29  24 E14G22    30.09S
$$

...MARINE OBSERVATIONS...

STATION/POSITION TIME  SKY/WX   TEMP    WIND        PRES    VSBY  WAVE   SWELL
                                AIR SEA DIR/SP/G                  HT/PER HT/PER
                 (UTC)          (F)     (DEG/KT/KT) (MB)    (MI)  (FT/S) (FT/S)
PORT ARANSAS     0500            66 66   50/ 13/ 15 1019.7R
BUOY 90 E PORT A NOT AVBL
BUOY 45 SE BAFFI 0500            69 68   80/ 16/ 17 1018.2R         6/ 7
BUOY 200 E PT IS NOT AVBL
BUOY 15 E GALVES 0500            64 65   50/ 14/ 16 1019.6F         4/ 6   2/11
$$


USA.gov is the U.S. government's official web portal to all federal, state and local government web resources and services.